Weather observations for the past three days for
Waterloo, Waterloo Municipal Airport
Metric (Imperial)
Date Time (cdt) Wind (kph) Vis. (km) Weather Sky Cond. Temperature (ºC) Relative Humidity Wind Chill (°C) Heat Index (°C) Pressure Precipitation (cm)
Air Dwpt 6 hour altimeter (cm) sea level (mb) 1 hr 3 hr 6 hr
Max. Min.
15 04:54 Calm 14.48 Fair CLR 20 18.9 93% 75.82 1009.9
15 03:54 Calm 16.09 Fair CLR 21.1 19.4 90% 75.82 1010.3
15 02:54 Calm 16.09 Fair CLR 21.1 20 93% 75.84 1010.4
15 01:54 Calm 16.09 Fair CLR 21.1 20 93% 75.87 1010.6
15 00:54 Calm 16.09 Fair CLR 22.2 20 28.3 22.2 87% 75.9 1011.1
14 23:54 Calm 16.09 Fair CLR 22.8 20.6 87% 75.87 1010.8
14 22:54 Calm 16.09 Fair CLR 22.8 21.1 90% 75.82 1010.1
14 21:54 N 11 16.09 Fair CLR 22.2 20.6 91% 75.77 1009.4
14 20:54 NW 11 16.09 Thunderstorm FEW075 OVC100 23.9 20.6 82% 24 75.79 1009.9
14 19:54 SW 11 16.09 Light Rain FEW036 SCT065 BKN090 23.3 19.4 79% 75.79 1009.7
14 18:54 W 28 G 41 16.09 Thunderstorm BKN032 28.9 21.7 32.8 28.9 65% 32 75.84 1010.5
14 17:54 SW 6 16.09 Thunderstorm in Vicinity SCT032 SCT049 31.1 25 70% 38 75.79 1009.5
14 16:54 W 13 16.09 Fair CLR 32.8 25 64% 40 75.79 1009.5
14 15:54 SW 13 16.09 Mostly Cloudy BKN035 31.1 24.4 68% 37 75.79 1009.7
14 14:54 SW 19 16.09 Mostly Cloudy BKN031 31.1 24.4 68% 37 75.79 1009.7
14 13:54 SW 17 16.09 A Few Clouds FEW031 31.1 23.9 66% 37 75.82 1010.0
14 12:54 SW 20 16.09 Mostly Cloudy BKN032 30.6 23.3 30.6 23.3 65% 35 75.9 1010.8
14 11:54 SW 19 16.09 Mostly Cloudy BKN028 29.4 22.8 68% 33 75.95 1011.6
14 10:54 S 17 16.09 Overcast SCT024 OVC030 28.3 22.8 72% 32 75.97 1012.1
14 09:54 S 15 16.09 Fair CLR 27.8 22.8 74% 31 75.97 1011.8
14 08:54 SE 20 16.09 Fair CLR 26.1 20 69% 27 76 1012.4
14 07:54 SE 19 16.09 Fair CLR 24.4 18.3 69% 25 76.05 1013.0
14 06:54 SE 17 G 35 16.09 Partly Cloudy SCT027 SCT120 23.3 17.8 26.1 22.8 71% 76.05 1013.2
14 05:54 E 17 G 31 16.09 Mostly Cloudy FEW011 BKN016 BKN070 23.9 21.7 88% 24 76.12 1014.1
14 04:54 E 7 16.09 Fair CLR 24.4 22.8 91% 24 76.02 1012.5
14 03:54 S 7 16.09 Fair CLR 25 22.8 88% 26 75.92 1011.2
14 02:54 S 13 16.09 Fair CLR 25.6 22.8 85% 27 75.95 1011.6
14 01:54 S 15 16.09 Fair CLR 25.6 22.2 82% 27 75.97 1012.0
14 00:54 S 20 16.09 Fair CLR 26.1 22.2 30.6 26.1 79% 28 76.02 1012.7
13 23:54 S 20 16.09 A Few Clouds FEW044 27.8 22.2 72% 30 76.07 1013.3
13 22:54 S 17 16.09 Mostly Cloudy SCT037 BKN060 27.8 23.3 77% 31 76.1 1013.6
13 21:54 SE 7 16.09 Overcast OVC037 28.9 23.9 74% 33 76.12 1013.9
13 20:54 S 13 16.09 Fair CLR 28.9 23.9 74% 33 76.05 1013.0
13 19:54 S 15 16.09 Fair CLR 30 23.9 70% 35 76.05 1013.3
13 18:54 SW 13 16.09 Mostly Cloudy BKN039 30.6 23.3 32.2 30.6 65% 35 76.07 1013.5
13 17:54 S 19 16.09 Partly Cloudy SCT037 31.1 23.9 66% 37 76.05 1013.1
13 16:54 S 20 G 35 16.09 Partly Cloudy SCT034 32.2 24.4 63% 39 76.05 1013.1
13 15:54 S 26 16.09 Mostly Cloudy BKN032 31.1 23.9 66% 37 76.1 1013.8
13 14:54 S 26 G 37 16.09 Mostly Cloudy BKN032 31.1 23.9 66% 37 76.15 1014.6
13 13:54 S 20 16.09 Partly Cloudy SCT029 31.1 24.4 68% 37 76.2 1015.1
13 12:54 S 20 16.09 Mostly Cloudy BKN027 30.6 24.4 31.1 23.3 70% 36 76.25 1015.8
13 11:54 S 28 G 37 16.09 Fair CLR 30 23.9 70% 35 76.28 1016.1
13 10:54 S 24 16.09 Fair CLR 28.9 23.3 72% 33 76.25 1015.8
13 09:54 SE 17 16.09 Fair CLR 27.8 22.8 74% 31 76.25 1015.8
13 08:54 SE 15 16.09 A Few Clouds FEW039 26.7 21.7 74% 29 76.3 1016.7
13 07:54 SE 13 16.09 A Few Clouds FEW042 25 21.7 82% 26 76.35 1017.3
13 06:54 SE 13 16.09 Fair CLR 23.3 21.1 23.9 22.8 88% 76.33 1016.8
13 05:54 SE 15 16.09 Partly Cloudy SCT041 22.8 20.6 87% 76.35 1017.1
13 04:54 SE 15 16.09 Partly Cloudy SCT039 22.8 20.6 87% 76.35 1017.1
13 03:54 SE 17 16.09 Fair CLR 23.3 20.6 85% 76.33 1017.0
13 02:54 SE 13 16.09 Fair CLR 23.3 20.6 85% 76.33 1017.0
13 01:54 SE 17 16.09 Mostly Cloudy BKN036 23.9 20 79% 24 76.35 1017.1
13 00:54 SE 9 16.09 Fair CLR 23.9 20 28.3 23.3 79% 24 76.38 1017.5
12 23:54 SE 17 16.09 Fair CLR 24.4 20 77% 25 76.38 1017.5
12 22:54 E 9 16.09 Fair CLR 23.9 19.4 76% 24 76.38 1017.6
12 21:54 SE 11 16.09 Fair CLR 25.6 19.4 69% 27 76.38 1017.5
12 20:54 SE 11 16.09 A Few Clouds FEW070 26.1 19.4 67% 27 76.35 1017.3
12 19:54 SE 15 16.09 A Few Clouds FEW070 27.2 19.4 62% 29 76.35 1017.4
12 18:54 S 20 16.09 Partly Cloudy FEW041 SCT070 28.3 19.4 29.4 27.8 59% 30 76.35 1017.3
12 17:54 SE 19 16.09 Partly Cloudy SCT043 28.9 19.4 57% 30 76.33 1016.9
12 16:54 S 19 16.09 A Few Clouds FEW044 29.4 18.9 53% 31 76.33 1017.2
12 15:54 SE 22 16.09 Mostly Cloudy BKN042 29.4 19.4 55% 31 76.35 1017.4
12 14:54 SE 22 G 35 16.09 Mostly Cloudy BKN042 28.9 18.9 55% 30 76.38 1017.6
12 13:54 S 17 16.09 Partly Cloudy SCT039 28.9 20 59% 31 76.38 1017.7
12 12:54 S 15 16.09 A Few Clouds FEW036 28.3 18.9 28.3 18.9 57% 30 76.43 1018.4
12 11:54 SE 17 16.09 A Few Clouds FEW032 27.2 18.9 61% 28 76.48 1019.0
12 10:54 S 17 16.09 A Few Clouds FEW029 26.7 19.4 64% 28 76.5 1019.4
12 09:54 SE 17 16.09 Fair CLR 25.6 18.9 67% 27 76.5 1019.5
12 08:54 SE 11 16.09 Fair CLR 23.9 18.3 71% 25 76.5 1019.4
12 07:54 SE 7 16.09 Fair CLR 21.1 18.3 84% 76.48 1019.2
12 06:54 Calm 14.48 Fair CLR 18.9 16.7 19.4 16.1 87% 76.45 1018.6
12 05:54 E 6 16.09 Fair CLR 17.2 15.6 90% 76.4 1018.2
Date Time (cdt) Wind (kph) Vis. (km) Weather Sky Cond. Air Dwpt Max. Min. Relative Humidity Wind Chill (°C) Heat Index (°C) altimeter (cm) sea level (mb) 1 hr 3 hr 6 hr
6 hour
Temperature (ºC) Pressure Precipitation (cm)